Météo par heure à Kiszki

Ce jour, 8 Mars, Lundi

Heure Température Précipitation Vent Pression Humidité
00:00 -4°C° 0.1 mm 5 m/s 742 mmHg 87%
01:00 -4°C° 0 mm 5 m/s 742 mmHg 87%
02:00 -3°C° 0.3 mm 4 m/s 742 mmHg 90%
03:00 -3°C° 0.3 mm 4 m/s 742 mmHg 92%
04:00 -3°C° 0.3 mm 4 m/s 742 mmHg 94%
05:00 -3°C° 0.3 mm 4 m/s 742 mmHg 93%
06:00 -3°C° 0.3 mm 4 m/s 742 mmHg 91%
07:00 -3°C° 0 mm 4 m/s 742 mmHg 90%
08:00 -3°C° 0 mm 4 m/s 743 mmHg 78%
09:00 -2°C° 0 mm 4 m/s 743 mmHg 67%
10:00 -1°C° 0 mm 4 m/s 744 mmHg 55%
11:00 -1°C° 0 mm 4 m/s 744 mmHg 54%
12:00 0°C° 0 mm 4 m/s 744 mmHg 53%
13:00 0°C° 0 mm 4 m/s 744 mmHg 51%
14:00 0°C° 0 mm 4 m/s 745 mmHg 52%
15:00 0°C° 0 mm 4 m/s 745 mmHg 54%
16:00 -1°C° 0 mm 4 m/s 745 mmHg 55%
17:00 -1°C° 0 mm 3 m/s 745 mmHg 61%
18:00 -2°C° 0 mm 3 m/s 745 mmHg 67%
19:00 -3°C° 0 mm 2 m/s 746 mmHg 74%
20:00 -3°C° 0 mm 2 m/s 746 mmHg 76%
21:00 -3°C° 0 mm 2 m/s 746 mmHg 78%
22:00 -4°C° 0 mm 2 m/s 747 mmHg 80%
23:00 -4°C° 0 mm 2 m/s 747 mmHg 81%

Demain, 9 Mars, Mardi

Heure Température Précipitation Vent Pression Humidité
00:00 -4°C° 0 mm 2 m/s 747 mmHg 82%
01:00 -4°C° 0 mm 2 m/s 747 mmHg 83%
02:00 -4°C° 0 mm 2 m/s 747 mmHg 84%
03:00 -4°C° 0 mm 2 m/s 747 mmHg 84%
04:00 -5°C° 0 mm 2 m/s 747 mmHg 84%
05:00 -4°C° 0 mm 2 m/s 747 mmHg 82%
06:00 -4°C° 0 mm 2 m/s 747 mmHg 80%
07:00 -4°C° 0 mm 2 m/s 748 mmHg 77%
08:00 -3°C° 0 mm 2 m/s 748 mmHg 70%
09:00 0°C° 0 mm 1 m/s 748 mmHg 62%
10:00 0°C° 0 mm 1 m/s 748 mmHg 55%
11:00 +1°C° 0 mm 1 m/s 748 mmHg 51%
12:00 +2°C° 0 mm 1 m/s 748 mmHg 47%
13:00 +2°C° 0 mm 0 m/s 748 mmHg 43%
14:00 +2°C° 0 mm 1 m/s 748 mmHg 44%
15:00 +2°C° 0 mm 1 m/s 747 mmHg 45%
16:00 +2°C° 0 mm 1 m/s 747 mmHg 45%
17:00 +1°C° 0 mm 1 m/s 747 mmHg 53%
18:00 -2°C° 0 mm 2 m/s 747 mmHg 60%
19:00 -4°C° 0 mm 2 m/s 748 mmHg 67%
20:00 -4°C° 0 mm 2 m/s 748 mmHg 68%
21:00 -4°C° 0 mm 2 m/s 748 mmHg 70%
22:00 -4°C° 0 mm 2 m/s 748 mmHg 71%
23:00 -4°C° 0 mm 2 m/s 748 mmHg 71%

Après-demain, 10 Mars, Mercredi

Heure Température Précipitation Vent Pression Humidité
00:00 -4°C° 0 mm 2 m/s 748 mmHg 71%
01:00 -4°C° 0 mm 2 m/s 747 mmHg 71%
02:00 -4°C° 0 mm 2 m/s 747 mmHg 72%
03:00 -4°C° 0 mm 2 m/s 747 mmHg 72%
04:00 -4°C° 0 mm 2 m/s 747 mmHg 73%
05:00 -4°C° 0 mm 2 m/s 747 mmHg 72%
06:00 -4°C° 0 mm 2 m/s 747 mmHg 71%
07:00 -4°C° 0 mm 2 m/s 747 mmHg 70%
08:00 -2°C° 0 mm 2 m/s 747 mmHg 63%
09:00 -1°C° 0 mm 2 m/s 748 mmHg 56%
10:00 +1°C° 0 mm 2 m/s 748 mmHg 50%
11:00 +1°C° 0 mm 2 m/s 748 mmHg 48%
12:00 +2°C° 0 mm 2 m/s 748 mmHg 46%
13:00 +2°C° 0 mm 2 m/s 748 mmHg 43%
14:00 +2°C° 0 mm 2 m/s 748 mmHg 45%
15:00 +2°C° 0 mm 2 m/s 747 mmHg 47%
16:00 +2°C° 0 mm 2 m/s 747 mmHg 48%
17:00 +1°C° 0 mm 2 m/s 748 mmHg 54%
18:00 -2°C° 0 mm 2 m/s 748 mmHg 60%
19:00 -3°C° 0 mm 2 m/s 748 mmHg 66%
20:00 -1°C° 0 mm 1 m/s 748 mmHg 69%
21:00 -1°C° 0 mm 1 m/s 748 mmHg 72%
22:00 -1°C° 0 mm 1 m/s 749 mmHg 75%
23:00 -1°C° 0 mm 1 m/s 749 mmHg 77%

11 Mars, Jeudi

Heure Température Précipitation Vent Pression Humidité
00:00 -2°C° 0 mm 1 m/s 749 mmHg 78%
01:00 -2°C° 0 mm 1 m/s 749 mmHg 80%
02:00 -2°C° 0 mm 1 m/s 748 mmHg 82%
03:00 -2°C° 0 mm 1 m/s 748 mmHg 83%
04:00 -2°C° 0 mm 1 m/s 748 mmHg 85%
05:00 -2°C° 0 mm 1 m/s 748 mmHg 86%
06:00 -3°C° 0 mm 2 m/s 748 mmHg 86%
07:00 -3°C° 0 mm 2 m/s 748 mmHg 87%
08:00 -2°C° 0 mm 2 m/s 748 mmHg 80%
09:00 -1°C° 0 mm 3 m/s 748 mmHg 73%
10:00 0°C° 0 mm 3 m/s 747 mmHg 66%
11:00 +1°C° 0 mm 3 m/s 747 mmHg 62%
12:00 0°C° 0 mm 4 m/s 746 mmHg 59%
13:00 +1°C° 0 mm 4 m/s 746 mmHg 55%
14:00 +1°C° 0 mm 4 m/s 745 mmHg 56%
15:00 +1°C° 0 mm 4 m/s 745 mmHg 56%
16:00 +2°C° 0 mm 3 m/s 744 mmHg 57%
17:00 +1°C° 0 mm 4 m/s 743 mmHg 59%
18:00 0°C° 0 mm 5 m/s 743 mmHg 61%
19:00 0°C° 0 mm 5 m/s 743 mmHg 63%
20:00 -1°C° 0.2 mm 5 m/s 742 mmHg 73%
21:00 -1°C° 0.2 mm 5 m/s 742 mmHg 82%
22:00 -2°C° 0.2 mm 6 m/s 742 mmHg 91%
23:00 -2°C° 0.6 mm 6 m/s 741 mmHg 92%

12 Mars, Vendredi

Heure Température Précipitation Vent Pression Humidité
00:00 -2°C° 0.6 mm 6 m/s 740 mmHg 93%
01:00 -1°C° 0.6 mm 6 m/s 740 mmHg 94%
02:00 -1°C° 0.2 mm 6 m/s 739 mmHg 92%
03:00 -1°C° 0.2 mm 6 m/s 739 mmHg 90%
04:00 +1°C° 0.2 mm 6 m/s 738 mmHg 88%
05:00 +1°C° 0.4 mm 6 m/s 738 mmHg 88%
06:00 0°C° 0.4 mm 7 m/s 739 mmHg 88%
07:00 0°C° 0.4 mm 7 m/s 739 mmHg 88%
08:00 0°C° 0.2 mm 7 m/s 739 mmHg 88%
09:00 0°C° 0.2 mm 7 m/s 739 mmHg 88%
10:00 +2°C° 0.2 mm 6 m/s 740 mmHg 89%
11:00 +3°C° 0.1 mm 6 m/s 740 mmHg 82%
12:00 +5°C° 0.1 mm 6 m/s 740 mmHg 75%
13:00 +7°C° 0.1 mm 6 m/s 741 mmHg 68%
14:00 +7°C° 0.2 mm 5 m/s 741 mmHg 68%
15:00 +7°C° 0.2 mm 5 m/s 741 mmHg 68%
16:00 +7°C° 0.2 mm 4 m/s 741 mmHg 68%
17:00 +5°C° 0.1 mm 4 m/s 741 mmHg 74%
18:00 +4°C° 0.1 mm 3 m/s 741 mmHg 79%
19:00 +2°C° 0.1 mm 3 m/s 742 mmHg 85%
20:00 +2°C° 0 mm 3 m/s 742 mmHg 86%
21:00 +2°C° 0 mm 3 m/s 742 mmHg 88%
22:00 +1°C° 0 mm 3 m/s 742 mmHg 89%
23:00 +1°C° 0 mm 3 m/s 742 mmHg 90%

13 Mars, Samedi

Heure Température Précipitation Vent Pression Humidité
00:00 +1°C° 0 mm 3 m/s 742 mmHg 91%
01:00 0°C° 0 mm 3 m/s 742 mmHg 91%
02:00 0°C° 0 mm 3 m/s 742 mmHg 91%
03:00 0°C° 0 mm 3 m/s 741 mmHg 91%
04:00 0°C° 0 mm 3 m/s 741 mmHg 91%
05:00 0°C° 0 mm 3 m/s 741 mmHg 90%
06:00 0°C° 0 mm 4 m/s 741 mmHg 89%
07:00 0°C° 0 mm 4 m/s 741 mmHg 88%
08:00 +3°C° 0 mm 4 m/s 741 mmHg 82%
09:00 +5°C° 0 mm 4 m/s 741 mmHg 77%
10:00 +6°C° 0 mm 4 m/s 741 mmHg 71%
11:00 +7°C° 0 mm 5 m/s 741 mmHg 66%
12:00 +8°C° 0 mm 5 m/s 741 mmHg 61%
13:00 +9°C° 0 mm 5 m/s 741 mmHg 56%
14:00 +8°C° 0.1 mm 4 m/s 740 mmHg 61%
15:00 +8°C° 0.1 mm 4 m/s 740 mmHg 65%
16:00 +7°C° 0.1 mm 4 m/s 740 mmHg 70%
17:00 +6°C° 0.1 mm 4 m/s 740 mmHg 75%
18:00 +5°C° 0.1 mm 4 m/s 740 mmHg 80%
19:00 +4°C° 0.1 mm 4 m/s 740 mmHg 85%
20:00 +4°C° 0.7 mm 3 m/s 740 mmHg 87%
21:00 +4°C° 0.7 mm 3 m/s 740 mmHg 89%
22:00 +4°C° 0.7 mm 3 m/s 740 mmHg 91%
23:00 +3°C° 0.1 mm 3 m/s 740 mmHg 92%
Voir plus

Nous avons besoin de votre consentement

Meteoprog et ses fournisseurs de services peuvent stocker et accéder à des données personnelles telles que des cookies, des identifiants d'appareils ou d'autres technologies similaires sur votre appareil et traiter ces données pour personnaliser le contenu et les publicités, ainsi que pour fournir des fonctionnalités de médias sociaux et analyser le trafic.

  • Stocker et/ou accéder à des informations sur votre appareil

    Des cookies, des identifiants d'appareils ou d'autres informations peuvent être stockés ou accessibles sur votre appareil aux fins indiquées ci-dessus.

  • Annonces et contenus personnalisés, mesure des annonces et des contenus, connaissance de l'audience et développement de produits

    Les annonces et le contenu peuvent être personnalisés en fonction d'un profil. D'autres données peuvent être ajoutées pour mieux personnaliser les annonces et le contenu. Les performances des publicités et du contenu peuvent être mesurées. Il est possible d'obtenir des informations sur le public qui a vu les publicités et le contenu. Ces données peuvent être utilisées pour développer ou améliorer l'expérience de l'utilisateur, les systèmes et les logiciels.

En cliquant sur "J'accepte", vous autorisez l'utilisation de cookies, des identifiants d'appareils, des balises web ou d'autres technologies similaires. Vos paramètres peuvent être modifiés dans le navigateur de votre appareil.

Dans certains cas, des intérêts légitimes peuvent être invoqués plutôt qu'un consentement. Vous pouvez en savoir plus à ce sujet dans notre Politique de confidentialité et de cookies.